Time,TemperatureF,DewpointF,PressureIn,WindDirection,WindDirectionDegrees,WindSpeedMPH,WindSpeedGustMPH,Humidity,HourlyPrecipIn,Conditions,Clouds,dailyrainin,SoftwareType,DateUTC
2013-02-16 00:06:00,45.9,40.7,24.80,North,0,0.0,0.0,82,0.00,,---,0.00,VWS V13.01,2013-02-16 08:06:00,
2013-02-16 00:11:00,45.8,40.9,24.80,ENE,71,0.0,0.0,83,0.00,,---,0.00,VWS V13.01,2013-02-16 08:11:00,
2013-02-16 00:16:00,45.7,40.8,24.80,ENE,71,0.0,0.0,83,0.00,,---,0.00,VWS V13.01,2013-02-16 08:16:00,
2013-02-16 00:21:00,45.6,41.0,24.80,ENE,71,0.0,0.0,84,0.00,,---,0.00,VWS V13.01,2013-02-16 08:21:00,
2013-02-16 00:26:00,45.5,40.7,24.80,ENE,71,0.0,0.0,83,0.00,,---,0.00,VWS V13.01,2013-02-16 08:26:00,
2013-02-16 00:31:00,45.4,40.5,24.80,ENE,71,0.0,0.0,83,0.00,,---,0.00,VWS V13.01,2013-02-16 08:31:00,
2013-02-16 00:36:00,45.3,40.5,24.80,ENE,71,0.0,0.0,83,0.00,,---,0.00,VWS V13.01,2013-02-16 08:36:00,
2013-02-16 00:41:00,45.2,40.7,24.80,ENE,71,0.0,0.0,84,0.00,,---,0.00,VWS V13.01,2013-02-16 08:41:00,
2013-02-16 00:45:00,45.2,40.7,24.80,ENE,71,0.0,0.0,84,0.00,,---,0.00,VWS V13.01,2013-02-16 08:45:00,
2013-02-16 00:50:00,45.2,40.7,24.80,ENE,71,0.0,0.0,84,0.00,,---,0.00,VWS V13.01,2013-02-16 08:50:00,
2013-02-16 00:55:00,45.1,40.6,24.80,ENE,71,0.0,0.0,84,0.00,,---,0.00,VWS V13.01,2013-02-16 08:55:00,
2013-02-16 01:00:00,45.0,40.5,24.80,ENE,71,0.0,0.0,84,0.00,,---,0.00,VWS V13.01,2013-02-16 09:00:00,
2013-02-16 01:05:00,44.9,40.4,24.80,ENE,71,0.0,0.0,84,0.00,,---,0.00,VWS V13.01,2013-02-16 09:05:00,
2013-02-16 01:10:00,44.9,40.7,24.80,ENE,71,0.0,0.0,85,0.00,,---,0.00,VWS V13.01,2013-02-16 09:10:00,
2013-02-16 01:15:00,44.9,40.7,24.80,ENE,71,0.0,0.0,85,0.00,,---,0.00,VWS V13.01,2013-02-16 09:15:00,
2013-02-16 01:20:00,45.0,40.8,24.80,ENE,71,0.0,0.0,85,0.00,,---,0.00,VWS V13.01,2013-02-16 09:20:00,
2013-02-16 01:25:00,45.0,40.8,24.80,ENE,71,0.0,0.0,85,0.00,,---,0.00,VWS V13.01,2013-02-16 09:25:00,
2013-02-16 01:30:00,44.9,40.7,24.80,ENE,71,0.0,0.0,85,0.00,,---,0.00,VWS V13.01,2013-02-16 09:30:00,
2013-02-16 01:35:00,44.7,40.5,24.80,ENE,71,0.0,0.0,85,0.00,,---,0.00,VWS V13.01,2013-02-16 09:35:00,
2013-02-16 01:40:00,44.6,40.4,24.80,ENE,71,0.0,0.0,85,0.00,,---,0.00,VWS V13.01,2013-02-16 09:40:00,
2013-02-16 01:45:00,44.5,40.3,24.80,ENE,71,0.0,0.0,85,0.00,,---,0.00,VWS V13.01,2013-02-16 09:45:00,
2013-02-16 01:50:00,44.3,40.4,24.80,ENE,71,0.0,0.0,86,0.00,,---,0.00,VWS V13.01,2013-02-16 09:50:00,
2013-02-16 01:55:00,44.3,40.4,24.80,ENE,71,0.0,0.0,86,0.00,,---,0.00,VWS V13.01,2013-02-16 09:55:00,
2013-02-16 02:00:00,44.3,40.4,24.80,ENE,71,0.0,0.0,86,0.00,,---,0.00,VWS V13.01,2013-02-16 10:00:00,
2013-02-16 02:05:00,44.3,40.4,24.80,ENE,71,0.0,0.0,86,0.00,,---,0.00,VWS V13.01,2013-02-16 10:05:00,
2013-02-16 02:10:00,44.2,40.3,24.80,ENE,71,0.0,0.0,86,0.00,,---,0.00,VWS V13.01,2013-02-16 10:10:00,
2013-02-16 02:15:00,44.2,40.3,24.80,ENE,71,0.0,0.0,86,0.00,,---,0.00,VWS V13.01,2013-02-16 10:15:00,
2013-02-16 02:20:00,44.1,40.2,24.80,ENE,71,0.0,0.0,86,0.00,,---,0.00,VWS V13.01,2013-02-16 10:20:00,
2013-02-16 02:25:00,43.9,40.0,24.80,ENE,71,0.0,0.0,86,0.00,,---,0.00,VWS V13.01,2013-02-16 10:25:00,
2013-02-16 02:30:00,43.7,39.8,24.80,ENE,71,0.0,0.0,86,0.00,,---,0.00,VWS V13.01,2013-02-16 10:30:00,
2013-02-16 02:35:00,43.6,39.7,24.80,ENE,71,0.0,0.0,86,0.00,,---,0.00,VWS V13.01,2013-02-16 10:35:00,
2013-02-16 02:40:00,43.6,40.0,24.80,ENE,71,0.0,0.0,87,0.00,,---,0.00,VWS V13.01,2013-02-16 10:40:00,
2013-02-16 02:45:00,43.4,39.5,24.80,ENE,71,0.0,0.0,86,0.00,,---,0.00,VWS V13.01,2013-02-16 10:45:00,
2013-02-16 02:50:00,43.3,39.4,24.80,ENE,71,0.0,0.0,86,0.00,,---,0.00,VWS V13.01,2013-02-16 10:50:00,
2013-02-16 02:55:00,43.1,39.2,24.80,ENE,71,0.0,0.0,86,0.00,,---,0.00,VWS V13.01,2013-02-16 10:55:00,
2013-02-16 03:00:00,43.0,39.1,24.80,ENE,71,0.0,0.0,86,0.00,,---,0.00,VWS V13.01,2013-02-16 11:00:00,
2013-02-16 03:05:00,42.9,39.3,24.80,ENE,71,0.0,0.0,87,0.00,,---,0.00,VWS V13.01,2013-02-16 11:05:00,
2013-02-16 03:10:00,42.8,39.2,24.80,ENE,71,0.0,0.0,87,0.00,,---,0.00,VWS V13.01,2013-02-16 11:10:00,
2013-02-16 03:15:00,42.7,39.1,24.80,ENE,71,0.0,0.0,87,0.00,,---,0.00,VWS V13.01,2013-02-16 11:15:00,
2013-02-16 03:20:00,42.7,39.1,24.80,ENE,71,0.0,0.0,87,0.00,,---,0.00,VWS V13.01,2013-02-16 11:20:00,
2013-02-16 03:25:00,42.7,39.1,24.80,ENE,71,0.0,0.0,87,0.00,,---,0.00,VWS V13.01,2013-02-16 11:25:00,
2013-02-16 03:30:00,42.7,39.4,24.80,ENE,71,0.0,0.0,88,0.00,,---,0.00,VWS V13.01,2013-02-16 11:30:00,
2013-02-16 03:35:00,42.7,39.4,24.80,ENE,71,0.0,0.0,88,0.00,,---,0.00,VWS V13.01,2013-02-16 11:35:00,
2013-02-16 03:40:00,42.7,39.4,24.80,ENE,71,0.0,0.0,88,0.00,,---,0.00,VWS V13.01,2013-02-16 11:40:00,
2013-02-16 03:45:00,42.6,39.0,24.80,ENE,71,0.0,0.0,87,0.00,,---,0.00,VWS V13.01,2013-02-16 11:45:00,
2013-02-16 03:50:00,42.4,38.8,24.80,ENE,71,0.0,0.0,87,0.00,,---,0.00,VWS V13.01,2013-02-16 11:50:00,
2013-02-16 03:55:00,42.3,38.7,24.80,ENE,71,0.0,0.0,87,0.00,,---,0.00,VWS V13.01,2013-02-16 11:55:00,
2013-02-16 04:00:00,42.1,38.5,24.80,ENE,71,0.0,0.0,87,0.00,,---,0.00,VWS V13.01,2013-02-16 12:00:00,
2013-02-16 04:05:00,42.0,38.4,24.80,ENE,71,0.0,0.0,87,0.00,,---,0.00,VWS V13.01,2013-02-16 12:05:00,
2013-02-16 04:10:00,42.0,38.7,24.80,ENE,71,0.0,0.0,88,0.00,,---,0.00,VWS V13.01,2013-02-16 12:10:00,
2013-02-16 04:15:00,41.9,38.6,24.80,ENE,71,0.0,0.0,88,0.00,,---,0.00,VWS V13.01,2013-02-16 12:15:00,
2013-02-16 04:20:00,41.8,38.5,24.80,ENE,71,0.0,0.0,88,0.00,,---,0.00,VWS V13.01,2013-02-16 12:20:00,
2013-02-16 04:25:00,41.7,38.4,24.80,ENE,71,0.0,0.0,88,0.00,,---,0.00,VWS V13.01,2013-02-16 12:25:00,
2013-02-16 04:30:00,41.7,38.4,24.80,ENE,71,0.0,0.0,88,0.00,,---,0.00,VWS V13.01,2013-02-16 12:30:00,
2013-02-16 04:35:00,41.7,38.4,24.80,ENE,71,0.0,0.0,88,0.00,,---,0.00,VWS V13.01,2013-02-16 12:35:00,
2013-02-16 04:40:00,41.8,38.5,24.80,ENE,71,0.0,0.0,88,0.00,,---,0.00,VWS V13.01,2013-02-16 12:40:00,
2013-02-16 04:45:00,42.1,39.1,24.80,ENE,71,0.0,0.0,89,0.00,,---,0.00,VWS V13.01,2013-02-16 12:45:00,
2013-02-16 04:50:00,42.1,38.8,24.80,ENE,71,0.0,0.0,88,0.00,,---,0.00,VWS V13.01,2013-02-16 12:50:00,
2013-02-16 04:55:00,42.2,38.9,24.80,ENE,71,0.0,0.0,88,0.00,,---,0.00,VWS V13.01,2013-02-16 12:55:00,
2013-02-16 05:00:00,42.2,39.2,21.44,ENE,71,0.0,0.0,89,0.00,,---,0.00,VWS V13.01,2013-02-16 13:00:00,
2013-02-16 05:05:00,42.2,38.9,24.76,ENE,71,0.0,0.0,88,0.00,,---,0.00,VWS V13.01,2013-02-16 13:05:00,
2013-02-16 05:10:00,42.1,38.8,21.41,ENE,71,0.0,0.0,88,0.00,,---,0.00,VWS V13.01,2013-02-16 13:10:00,
2013-02-16 05:15:00,42.1,38.8,24.74,ENE,71,0.0,0.0,88,0.00,,---,0.00,VWS V13.01,2013-02-16 13:15:00,
2013-02-16 05:20:00,42.0,38.7,24.73,ENE,71,0.0,0.0,88,0.00,,---,0.00,VWS V13.01,2013-02-16 13:20:00,
2013-02-16 05:25:00,42.0,38.7,21.40,ENE,71,0.0,0.0,88,0.00,,---,0.00,VWS V13.01,2013-02-16 13:25:00,
2013-02-16 05:30:00,42.0,38.7,21.40,ENE,71,0.0,0.0,88,0.00,,---,0.00,VWS V13.01,2013-02-16 13:30:00,
2013-02-16 05:35:00,42.0,38.7,24.72,ENE,71,0.0,0.0,88,0.00,,---,0.00,VWS V13.01,2013-02-16 13:35:00,
2013-02-16 05:40:00,41.9,38.6,24.72,ENE,71,0.0,0.0,88,0.00,,---,0.00,VWS V13.01,2013-02-16 13:40:00,
2013-02-16 05:45:00,41.8,38.5,24.71,ENE,71,0.0,0.0,88,0.00,,---,0.00,VWS V13.01,2013-02-16 13:45:00,
2013-02-16 05:50:00,41.7,38.4,24.71,ENE,71,0.0,0.0,88,0.00,,---,0.00,VWS V13.01,2013-02-16 13:50:00,
2013-02-16 05:55:00,41.6,38.3,24.72,ENE,71,0.0,0.0,88,0.00,,---,0.00,VWS V13.01,2013-02-16 13:55:00,
2013-02-16 06:00:00,41.7,38.7,24.71,ENE,71,0.0,0.0,89,0.00,,---,0.00,VWS V13.01,2013-02-16 14:00:00,
2013-02-16 06:05:00,41.8,38.8,24.72,ENE,71,0.0,0.0,89,0.00,,---,0.00,VWS V13.01,2013-02-16 14:05:00,
2013-02-16 06:10:00,41.8,38.8,24.71,ENE,71,0.0,0.0,89,0.00,,---,0.00,VWS V13.01,2013-02-16 14:10:00,
2013-02-16 06:15:00,41.7,38.7,24.71,ENE,71,0.0,0.0,89,0.00,,---,0.00,VWS V13.01,2013-02-16 14:15:00,
2013-02-16 06:20:00,41.7,38.7,24.71,ENE,71,0.0,0.0,89,0.00,,---,0.00,VWS V13.01,2013-02-16 14:20:00,
2013-02-16 06:25:00,41.7,38.7,24.71,ENE,71,0.0,0.0,89,0.00,,---,0.00,VWS V13.01,2013-02-16 14:25:00,
2013-02-16 06:30:00,41.6,38.6,24.70,ENE,71,0.0,0.0,89,0.00,,---,0.00,VWS V13.01,2013-02-16 14:30:00,
2013-02-16 06:35:00,41.6,38.6,24.71,ENE,71,0.0,0.0,89,0.00,,---,0.00,VWS V13.01,2013-02-16 14:35:00,
2013-02-16 06:40:00,41.6,38.6,24.70,ENE,71,0.0,0.0,89,0.00,,---,0.00,VWS V13.01,2013-02-16 14:40:00,
2013-02-16 06:45:00,41.7,38.7,24.70,ENE,71,0.0,0.0,89,0.00,,---,0.00,VWS V13.01,2013-02-16 14:45:00,
2013-02-16 06:50:00,41.8,38.8,24.70,ENE,71,0.0,0.0,89,0.00,,---,0.00,VWS V13.01,2013-02-16 14:50:00,
2013-02-16 06:55:00,41.7,38.7,24.70,ENE,71,0.0,0.0,89,0.00,,---,0.00,VWS V13.01,2013-02-16 14:55:00,
2013-02-16 07:00:00,41.6,38.6,24.70,ENE,71,0.0,0.0,89,0.00,,---,0.00,VWS V13.01,2013-02-16 15:00:00,
2013-02-16 07:05:00,41.6,38.6,24.70,ENE,71,0.0,0.0,89,0.00,,---,0.00,VWS V13.01,2013-02-16 15:05:00,
2013-02-16 07:10:00,41.5,38.5,24.70,ENE,71,0.0,0.0,89,0.00,,---,0.00,VWS V13.01,2013-02-16 15:10:00,
2013-02-16 07:15:00,41.4,38.4,24.70,ENE,71,0.0,0.0,89,0.00,,---,0.00,VWS V13.01,2013-02-16 15:15:00,
2013-02-16 07:20:00,41.4,38.4,24.69,ENE,71,0.0,0.0,89,0.00,,---,0.00,VWS V13.01,2013-02-16 15:20:00,
2013-02-16 07:25:00,41.4,38.4,24.70,ENE,71,0.0,0.0,89,0.00,,---,0.00,VWS V13.01,2013-02-16 15:25:00,
2013-02-16 07:30:00,41.5,38.8,24.69,ENE,71,0.0,0.0,90,0.00,,---,0.00,VWS V13.01,2013-02-16 15:30:00,
2013-02-16 07:35:00,41.6,38.9,24.69,ENE,71,0.0,0.0,90,0.00,,---,0.00,VWS V13.01,2013-02-16 15:35:00,
2013-02-16 07:40:00,41.7,39.0,24.69,ENE,71,0.0,0.0,90,0.00,,---,0.00,VWS V13.01,2013-02-16 15:40:00,
2013-02-16 07:45:00,41.9,39.2,24.69,ENE,71,0.0,0.0,90,0.00,,---,0.00,VWS V13.01,2013-02-16 15:45:00,
2013-02-16 07:50:00,42.2,39.5,24.69,ENE,71,0.0,0.0,90,0.01,,---,0.01,VWS V13.01,2013-02-16 15:50:00,
2013-02-16 07:55:00,42.5,39.8,24.69,ENE,71,0.0,0.0,90,0.01,,---,0.01,VWS V13.01,2013-02-16 15:55:00,
2013-02-16 08:00:00,42.8,40.1,24.69,ENE,71,0.0,0.0,90,0.01,,---,0.01,VWS V13.01,2013-02-16 16:00:00,
2013-02-16 08:05:00,43.0,40.3,24.69,ENE,71,0.0,0.0,90,0.01,,---,0.01,VWS V13.01,2013-02-16 16:05:00,
2013-02-16 08:10:00,43.4,40.7,24.69,ENE,71,0.0,0.0,90,0.01,,---,0.01,VWS V13.01,2013-02-16 16:10:00,
2013-02-16 08:15:00,43.8,41.1,24.69,ENE,71,0.0,0.0,90,0.01,,---,0.01,VWS V13.01,2013-02-16 16:15:00,
2013-02-16 08:20:00,44.2,41.5,24.69,ENE,71,0.0,0.0,90,0.01,,---,0.01,VWS V13.01,2013-02-16 16:20:00,
2013-02-16 08:25:00,44.6,42.1,24.69,ENE,71,0.0,0.0,91,0.01,,---,0.01,VWS V13.01,2013-02-16 16:25:00,
2013-02-16 08:30:00,45.1,42.3,24.69,ENE,71,0.0,0.0,90,0.01,,---,0.01,VWS V13.01,2013-02-16 16:30:00,
2013-02-16 08:35:00,45.9,43.4,24.69,ENE,71,0.0,0.0,91,0.01,,---,0.01,VWS V13.01,2013-02-16 16:35:00,
2013-02-16 08:40:00,46.7,44.2,24.69,ENE,71,0.0,0.0,91,0.01,,---,0.01,VWS V13.01,2013-02-16 16:40:00,
2013-02-16 08:45:00,47.3,44.8,24.69,ENE,71,0.0,0.0,91,0.01,,---,0.01,VWS V13.01,2013-02-16 16:45:00,
2013-02-16 08:50:00,47.9,45.1,24.69,ENE,71,0.0,0.0,90,0.01,,---,0.01,VWS V13.01,2013-02-16 16:50:00,
2013-02-16 08:55:00,48.4,45.6,24.69,ENE,71,0.0,0.0,90,0.01,,---,0.01,VWS V13.01,2013-02-16 16:55:00,
2013-02-16 09:00:00,49.0,45.9,24.69,ENE,71,0.0,0.0,89,0.01,,---,0.01,VWS V13.01,2013-02-16 17:00:00,
2013-02-16 09:05:00,49.6,45.9,24.70,ENE,71,0.0,0.0,87,0.00,,---,0.01,VWS V13.01,2013-02-16 17:05:00,
2013-02-16 09:10:00,50.3,46.3,24.70,ENE,71,0.0,0.0,86,0.00,,---,0.01,VWS V13.01,2013-02-16 17:10:00,
2013-02-16 09:15:00,51.0,47.0,24.70,ENE,71,0.0,0.0,86,0.00,,---,0.01,VWS V13.01,2013-02-16 17:15:00,
2013-02-16 09:20:00,51.8,46.8,24.70,ENE,71,0.0,0.0,83,0.00,,---,0.01,VWS V13.01,2013-02-16 17:20:00,
2013-02-16 09:25:00,52.6,46.6,24.70,ENE,70,0.0,0.0,80,0.00,,---,0.01,VWS V13.01,2013-02-16 17:25:00,
2013-02-16 09:30:00,53.6,46.9,24.70,ENE,70,0.0,0.0,78,0.00,,---,0.01,VWS V13.01,2013-02-16 17:30:00,
2013-02-16 09:35:00,54.4,47.0,24.70,ENE,69,0.0,0.0,76,0.00,,---,0.01,VWS V13.01,2013-02-16 17:35:00,
2013-02-16 09:40:00,55.1,46.6,24.70,ENE,69,0.0,0.0,73,0.00,,---,0.01,VWS V13.01,2013-02-16 17:40:00,
2013-02-16 09:45:00,55.7,47.2,24.71,ENE,70,0.0,0.0,73,0.00,,---,0.01,VWS V13.01,2013-02-16 17:45:00,
2013-02-16 09:50:00,56.3,47.0,24.71,ENE,70,0.0,0.0,71,0.00,,---,0.01,VWS V13.01,2013-02-16 17:50:00,
2013-02-16 09:55:00,57.0,47.3,24.71,ENE,70,0.0,0.0,70,0.00,,---,0.01,VWS V13.01,2013-02-16 17:55:00,
2013-02-16 10:00:00,57.5,46.6,24.71,ENE,70,0.0,2.0,67,0.00,,---,0.01,VWS V13.01,2013-02-16 18:00:00,
2013-02-16 10:05:00,58.0,47.1,24.71,ENE,69,0.0,2.0,67,0.00,,---,0.01,VWS V13.01,2013-02-16 18:05:00,
2013-02-16 10:10:00,58.4,47.1,24.71,ENE,70,0.0,2.0,66,0.00,,---,0.01,VWS V13.01,2013-02-16 18:10:00,
2013-02-16 10:15:00,58.7,47.0,24.72,ENE,69,0.0,2.0,65,0.00,,---,0.01,VWS V13.01,2013-02-16 18:15:00,
2013-02-16 10:20:00,58.9,47.2,24.73,ENE,70,0.0,2.0,65,0.00,,---,0.01,VWS V13.01,2013-02-16 18:20:00,
2013-02-16 10:25:00,59.2,47.0,24.72,ENE,69,0.0,2.0,64,0.00,,---,0.01,VWS V13.01,2013-02-16 18:25:00,
2013-02-16 10:30:00,59.5,46.9,24.73,ENE,69,0.0,3.0,63,0.00,,---,0.01,VWS V13.01,2013-02-16 18:30:00,
2013-02-16 10:35:00,59.8,46.3,24.73,ENE,69,0.0,3.0,61,0.00,,---,0.01,VWS V13.01,2013-02-16 18:35:00,
2013-02-16 10:40:00,60.2,44.9,24.73,ENE,71,2.0,5.0,57,0.00,,---,0.01,VWS V13.01,2013-02-16 18:40:00,
2013-02-16 10:45:00,60.3,45.5,24.74,East,79,2.0,5.0,58,0.00,,---,0.01,VWS V13.01,2013-02-16 18:45:00,
2013-02-16 10:50:00,60.3,45.5,24.75,East,86,4.0,5.0,58,0.00,,---,0.01,VWS V13.01,2013-02-16 18:50:00,
2013-02-16 10:55:00,60.5,44.7,24.76,ENE,74,5.0,5.0,56,0.00,,---,0.01,VWS V13.01,2013-02-16 18:55:00,
2013-02-16 11:00:00,60.6,44.8,24.76,ENE,78,0.0,6.0,56,0.00,,---,0.01,VWS V13.01,2013-02-16 19:00:00,
2013-02-16 11:05:00,60.9,45.1,24.76,East,80,0.0,5.0,56,0.00,,---,0.01,VWS V13.01,2013-02-16 19:05:00,
2013-02-16 11:10:00,61.3,45.0,24.78,ENE,71,2.0,6.0,55,0.00,,---,0.01,VWS V13.01,2013-02-16 19:10:00,
2013-02-16 11:15:00,61.5,44.7,24.80,ENE,78,4.0,6.0,54,0.00,,---,0.01,VWS V13.01,2013-02-16 19:15:00,
2013-02-16 11:20:00,61.7,43.9,24.80,East,81,4.0,6.0,52,0.00,,---,0.01,VWS V13.01,2013-02-16 19:20:00,
2013-02-16 11:25:00,61.8,44.5,24.80,East,80,4.0,6.0,53,0.00,,---,0.01,VWS V13.01,2013-02-16 19:25:00,
2013-02-16 11:30:00,62.0,44.7,24.80,East,87,4.0,6.0,53,0.00,,---,0.01,VWS V13.01,2013-02-16 19:30:00,
2013-02-16 11:35:00,62.0,45.7,24.80,East,92,3.0,6.0,55,0.00,,---,0.01,VWS V13.01,2013-02-16 19:35:00,
2013-02-16 11:40:00,62.3,45.5,24.80,East,84,2.0,7.0,54,0.00,,---,0.01,VWS V13.01,2013-02-16 19:40:00,
2013-02-16 11:45:00,62.6,45.2,24.80,ENE,75,1.0,7.0,53,0.00,,---,0.01,VWS V13.01,2013-02-16 19:45:00,
2013-02-16 11:50:00,62.9,45.5,24.80,East,84,1.0,7.0,53,0.00,,---,0.01,VWS V13.01,2013-02-16 19:50:00,
2013-02-16 11:55:00,62.8,45.4,24.80,East,84,2.0,7.0,53,0.00,,---,0.01,VWS V13.01,2013-02-16 19:55:00,
2013-02-16 12:00:00,62.6,45.2,24.80,East,91,2.0,7.0,53,0.00,,---,0.01,VWS V13.01,2013-02-16 20:00:00,
2013-02-16 12:05:00,62.5,45.7,24.80,East,79,3.0,5.0,54,0.00,,---,0.01,VWS V13.01,2013-02-16 20:05:00,
2013-02-16 12:10:00,62.3,46.0,24.80,ENE,72,2.0,6.0,55,0.00,,---,0.01,VWS V13.01,2013-02-16 20:10:00,
2013-02-16 12:15:00,62.6,46.2,24.80,East,83,2.0,6.0,55,0.00,,---,0.01,VWS V13.01,2013-02-16 20:15:00,
2013-02-16 12:20:00,62.9,46.0,24.80,East,82,5.0,6.0,54,0.00,,---,0.01,VWS V13.01,2013-02-16 20:20:00,
2013-02-16 12:25:00,63.0,46.1,24.80,East,95,3.0,7.0,54,0.00,,---,0.01,VWS V13.01,2013-02-16 20:25:00,
2013-02-16 12:30:00,63.3,45.9,24.80,East,83,4.0,7.0,53,0.00,,---,0.01,VWS V13.01,2013-02-16 20:30:00,
2013-02-16 12:35:00,63.7,46.8,24.80,East,83,4.0,7.0,54,0.00,,---,0.01,VWS V13.01,2013-02-16 20:35:00,
2013-02-16 12:40:00,64.0,45.5,24.80,East,90,3.0,9.0,51,0.00,,---,0.01,VWS V13.01,2013-02-16 20:40:00,
2013-02-16 12:45:00,64.5,45.5,24.80,East,84,4.0,9.0,50,0.00,,---,0.01,VWS V13.01,2013-02-16 20:45:00,
2013-02-16 12:50:00,64.7,45.1,24.80,East,84,4.0,9.0,49,0.00,,---,0.01,VWS V13.01,2013-02-16 20:50:00,
2013-02-16 12:55:00,64.6,45.0,24.80,ENE,72,6.0,9.0,49,0.00,,---,0.01,VWS V13.01,2013-02-16 20:55:00,
2013-02-16 13:00:00,64.8,45.7,24.80,East,99,5.0,9.0,50,0.00,,---,0.01,VWS V13.01,2013-02-16 21:00:00,
2013-02-16 13:05:00,64.8,44.7,24.80,East,88,2.0,9.0,48,0.00,,---,0.01,VWS V13.01,2013-02-16 21:05:00,
2013-02-16 13:10:00,64.8,43.6,24.80,East,82,5.0,9.0,46,0.00,,---,0.01,VWS V13.01,2013-02-16 21:10:00,
2013-02-16 13:15:00,64.7,45.1,24.80,East,83,1.0,9.0,49,0.00,,---,0.01,VWS V13.01,2013-02-16 21:15:00,
2013-02-16 13:20:00,64.9,44.8,24.80,East,80,4.0,9.0,48,0.00,,---,0.01,VWS V13.01,2013-02-16 21:20:00,
2013-02-16 13:25:00,65.0,46.5,24.80,ENE,74,3.0,9.0,51,0.00,,---,0.01,VWS V13.01,2013-02-16 21:25:00,
2013-02-16 13:30:00,65.2,45.6,24.80,ENE,72,4.0,9.0,49,0.00,,---,0.01,VWS V13.01,2013-02-16 21:30:00,
2013-02-16 13:35:00,65.1,46.0,24.80,East,82,4.0,9.0,50,0.00,,---,0.01,VWS V13.01,2013-02-16 21:35:00,
2013-02-16 13:40:00,65.0,44.8,24.80,ENE,74,2.0,9.0,48,0.00,,---,0.01,VWS V13.01,2013-02-16 21:40:00,
2013-02-16 13:45:00,64.9,44.8,24.80,East,80,3.0,9.0,48,0.00,,---,0.01,VWS V13.01,2013-02-16 21:45:00,
2013-02-16 13:50:00,65.2,45.0,24.80,ENE,78,1.0,9.0,48,0.00,,---,0.01,VWS V13.01,2013-02-16 21:50:00,
2013-02-16 13:55:00,65.6,44.8,24.80,ENE,64,2.0,9.0,47,0.00,,---,0.01,VWS V13.01,2013-02-16 21:55:00,
2013-02-16 14:00:00,65.9,45.1,24.80,ENE,59,0.0,9.0,47,0.00,,---,0.01,VWS V13.01,2013-02-16 22:00:00,
2013-02-16 14:05:00,66.2,46.0,24.80,ENE,60,2.0,3.0,48,0.00,,---,0.01,VWS V13.01,2013-02-16 22:05:00,
2013-02-16 14:10:00,66.3,44.9,24.80,ENE,70,0.0,4.0,46,0.00,,---,0.01,VWS V13.01,2013-02-16 22:10:00,
2013-02-16 14:15:00,66.6,44.6,24.80,East,101,1.0,4.0,45,0.00,,---,0.01,VWS V13.01,2013-02-16 22:15:00,
2013-02-16 14:20:00,66.8,43.6,24.80,ENE,76,1.0,4.0,43,0.00,,---,0.01,VWS V13.01,2013-02-16 22:20:00,
2013-02-16 14:25:00,66.7,41.6,24.80,East,92,2.0,6.0,40,0.00,,---,0.01,VWS V13.01,2013-02-16 22:25:00,
2013-02-16 14:30:00,66.5,41.5,24.80,ESE,106,3.0,6.0,40,0.00,,---,0.01,VWS V13.01,2013-02-16 22:30:00,
2013-02-16 14:35:00,66.7,41.0,24.80,East,101,3.0,6.0,39,0.00,,---,0.01,VWS V13.01,2013-02-16 22:35:00,
2013-02-16 14:40:00,67.2,42.1,24.80,ESE,107,3.0,7.0,40,0.00,,---,0.01,VWS V13.01,2013-02-16 22:40:00,
2013-02-16 14:45:00,67.4,42.9,24.80,ESE,103,2.0,7.0,41,0.00,,---,0.01,VWS V13.01,2013-02-16 22:45:00,
2013-02-16 14:50:00,67.7,42.5,24.80,SE,125,1.0,7.0,40,0.00,,---,0.01,VWS V13.01,2013-02-16 22:50:00,
2013-02-16 14:55:00,68.2,42.3,24.80,ESE,122,0.0,7.0,39,0.00,,---,0.01,VWS V13.01,2013-02-16 22:55:00,
2013-02-16 15:00:00,67.8,43.3,24.80,East,99,4.0,7.0,41,0.00,,---,0.01,VWS V13.01,2013-02-16 23:00:00,
2013-02-16 15:05:00,67.5,41.0,24.80,East,95,0.0,3.0,38,0.00,,---,0.01,VWS V13.01,2013-02-16 23:05:00,
2013-02-16 15:10:00,67.4,44.2,24.80,East,96,2.0,4.0,43,0.00,,---,0.01,VWS V13.01,2013-02-16 23:10:00,
2013-02-16 15:15:00,67.4,42.9,24.80,East,96,1.0,4.0,41,0.00,,---,0.01,VWS V13.01,2013-02-16 23:15:00,
2013-02-16 15:20:00,67.7,44.4,24.80,East,94,1.0,4.0,43,0.00,,---,0.01,VWS V13.01,2013-02-16 23:20:00,
2013-02-16 15:24:00,67.8,45.1,24.80,East,82,4.0,5.0,44,0.00,,---,0.01,VWS V13.01,2013-02-16 23:24:00,
2013-02-16 15:30:00,67.8,44.5,24.80,East,86,1.0,5.0,43,0.00,,---,0.01,VWS V13.01,2013-02-16 23:30:00,
2013-02-16 15:35:00,67.6,44.3,24.80,East,80,3.0,6.0,43,0.00,,---,0.01,VWS V13.01,2013-02-16 23:35:00,
2013-02-16 15:39:00,67.4,45.3,24.80,East,80,2.0,6.0,45,0.00,,---,0.01,VWS V13.01,2013-02-16 23:39:00,
2013-02-16 15:44:00,67.3,44.7,24.80,East,92,3.0,6.0,44,0.00,,---,0.01,VWS V13.01,2013-02-16 23:44:00,
2013-02-16 15:49:00,67.3,44.7,24.80,East,87,4.0,6.0,44,0.00,,---,0.01,VWS V13.01,2013-02-16 23:49:00,
2013-02-16 15:54:00,67.2,45.2,24.80,East,86,1.0,6.0,45,0.00,,---,0.01,VWS V13.01,2013-02-16 23:54:00,
2013-02-16 15:59:00,67.2,45.2,24.80,East,86,1.0,6.0,45,0.00,,---,0.01,VWS V13.01,2013-02-16 23:59:00,
2013-02-16 16:04:00,67.4,45.3,24.80,East,86,1.0,4.0,45,0.00,,---,0.01,VWS V13.01,2013-02-17 00:04:00,
2013-02-16 16:09:00,67.3,45.2,24.80,East,85,4.0,5.0,45,0.00,,---,0.01,VWS V13.01,2013-02-17 00:09:00,
2013-02-16 16:14:00,67.0,45.0,24.80,East,83,3.0,5.0,45,0.00,,---,0.01,VWS V13.01,2013-02-17 00:14:00,
2013-02-16 16:19:00,67.0,46.1,24.80,East,83,1.0,5.0,47,0.00,,---,0.01,VWS V13.01,2013-02-17 00:19:00,
2013-02-16 16:24:00,67.1,46.2,24.80,East,83,1.0,5.0,47,0.00,,---,0.01,VWS V13.01,2013-02-17 00:24:00,
2013-02-16 16:29:00,67.0,46.1,24.80,East,83,1.0,5.0,47,0.00,,---,0.01,VWS V13.01,2013-02-17 00:29:00,
2013-02-16 16:34:00,67.3,46.4,24.80,East,83,1.0,5.0,47,0.00,,---,0.01,VWS V13.01,2013-02-17 00:34:00,
2013-02-16 16:39:00,67.4,45.9,24.80,East,83,1.0,5.0,46,0.00,,---,0.01,VWS V13.01,2013-02-17 00:39:00,
2013-02-16 16:44:00,67.3,46.4,24.80,East,83,1.0,5.0,47,0.00,,---,0.01,VWS V13.01,2013-02-17 00:44:00,
2013-02-16 16:49:00,67.5,46.6,24.80,East,83,0.0,5.0,47,0.00,,---,0.01,VWS V13.01,2013-02-17 00:49:00,
2013-02-16 16:54:00,67.3,46.4,24.80,East,83,1.0,5.0,47,0.00,,---,0.01,VWS V13.01,2013-02-17 00:54:00,
2013-02-16 16:59:00,66.9,46.0,24.80,East,83,0.0,5.0,47,0.00,,---,0.01,VWS V13.01,2013-02-17 00:59:00,
2013-02-16 17:04:00,66.7,45.8,24.80,East,83,0.0,1.0,47,0.00,,---,0.01,VWS V13.01,2013-02-17 01:04:00,
2013-02-16 17:09:00,66.5,46.2,24.80,East,83,0.0,1.0,48,0.00,,---,0.01,VWS V13.01,2013-02-17 01:09:00,
2013-02-16 17:14:00,66.5,46.2,24.80,East,83,0.0,1.0,48,0.00,,---,0.01,VWS V13.01,2013-02-17 01:14:00,
2013-02-16 17:19:00,66.5,46.8,24.80,East,83,0.0,1.0,49,0.00,,---,0.01,VWS V13.01,2013-02-17 01:19:00,
2013-02-16 17:24:00,66.9,46.6,24.80,East,83,0.0,1.0,48,0.00,,---,0.01,VWS V13.01,2013-02-17 01:24:00,
2013-02-16 17:29:00,67.2,46.9,24.80,East,83,0.0,1.0,48,0.00,,---,0.01,VWS V13.01,2013-02-17 01:29:00,
2013-02-16 17:34:00,67.4,46.5,24.80,East,83,0.0,1.0,47,0.00,,---,0.01,VWS V13.01,2013-02-17 01:34:00,
2013-02-16 17:39:00,67.0,46.7,24.80,East,83,0.0,1.0,48,0.00,,---,0.01,VWS V13.01,2013-02-17 01:39:00,
2013-02-16 17:44:00,66.4,46.7,24.80,East,83,0.0,1.0,49,0.00,,---,0.01,VWS V13.01,2013-02-17 01:44:00,
2013-02-16 17:49:00,65.7,46.6,24.80,East,83,0.0,1.0,50,0.00,,---,0.01,VWS V13.01,2013-02-17 01:49:00,
2013-02-16 17:54:00,65.0,46.5,24.80,East,83,0.0,1.0,51,0.00,,---,0.01,VWS V13.01,2013-02-17 01:54:00,
2013-02-16 17:59:00,64.0,46.0,24.80,East,83,0.0,1.0,52,0.00,,---,0.01,VWS V13.01,2013-02-17 01:59:00,
2013-02-16 18:04:00,62.8,45.9,24.80,East,83,0.0,0.0,54,0.00,,---,0.01,VWS V13.01,2013-02-17 02:04:00,
2013-02-16 18:09:00,62.0,45.7,24.80,East,83,0.0,0.0,55,0.00,,---,0.01,VWS V13.01,2013-02-17 02:09:00,
2013-02-16 18:14:00,61.2,45.9,24.80,East,83,0.0,0.0,57,0.00,,---,0.01,VWS V13.01,2013-02-17 02:14:00,
2013-02-16 18:19:00,60.4,46.0,24.80,East,83,0.0,0.0,59,0.00,,---,0.01,VWS V13.01,2013-02-17 02:19:00,
2013-02-16 18:24:00,59.9,46.0,24.80,East,83,0.0,0.0,60,0.00,,---,0.01,VWS V13.01,2013-02-17 02:24:00,
2013-02-16 18:29:00,59.4,46.0,24.80,East,83,0.0,0.0,61,0.00,,---,0.01,VWS V13.01,2013-02-17 02:29:00,
2013-02-16 18:34:00,58.9,45.9,24.80,East,83,0.0,0.0,62,0.00,,---,0.01,VWS V13.01,2013-02-17 02:34:00,
2013-02-16 18:39:00,58.5,46.0,24.80,East,83,0.0,0.0,63,0.00,,---,0.01,VWS V13.01,2013-02-17 02:39:00,
2013-02-16 18:44:00,58.1,46.4,24.80,East,83,0.0,0.0,65,0.00,,---,0.01,VWS V13.01,2013-02-17 02:44:00,
2013-02-16 18:49:00,57.7,46.4,24.80,East,83,0.0,1.0,66,0.00,,---,0.01,VWS V13.01,2013-02-17 02:49:00,
2013-02-16 18:54:00,57.2,46.4,24.80,East,83,0.0,1.0,67,0.00,,---,0.01,VWS V13.01,2013-02-17 02:54:00,
2013-02-16 18:59:00,56.6,46.2,24.80,East,83,0.0,1.0,68,0.00,,---,0.01,VWS V13.01,2013-02-17 02:59:00,
2013-02-16 19:04:00,56.2,45.8,24.80,East,83,0.0,0.0,68,0.00,,---,0.01,VWS V13.01,2013-02-17 03:04:00,
2013-02-16 20:02:00,53.8,43.9,24.80,East,83,0.0,1.0,69,0.00,,---,0.01,VWS V13.01,2013-02-17 04:02:00,
2013-02-16 20:07:00,53.5,43.2,24.80,East,83,0.0,0.0,68,0.00,,---,0.01,VWS V13.01,2013-02-17 04:07:00,
2013-02-16 20:12:00,53.2,43.3,24.80,East,83,0.0,0.0,69,0.00,,---,0.01,VWS V13.01,2013-02-17 04:12:00,
2013-02-16 20:17:00,52.9,43.0,24.80,East,83,0.0,0.0,69,0.00,,---,0.01,VWS V13.01,2013-02-17 04:17:00,
2013-02-16 20:22:00,52.6,43.1,24.80,East,83,0.0,0.0,70,0.00,,---,0.01,VWS V13.01,2013-02-17 04:22:00,
2013-02-16 20:27:00,52.4,42.9,24.80,East,83,0.0,0.0,70,0.00,,---,0.01,VWS V13.01,2013-02-17 04:27:00,
2013-02-16 20:32:00,52.2,42.7,24.80,East,83,0.0,0.0,70,0.00,,---,0.01,VWS V13.01,2013-02-17 04:32:00,
2013-02-16 20:37:00,52.0,42.5,24.80,East,83,0.0,0.0,70,0.00,,---,0.01,VWS V13.01,2013-02-17 04:37:00,
2013-02-16 20:42:00,51.9,43.2,24.80,East,83,0.0,0.0,72,0.00,,---,0.01,VWS V13.01,2013-02-17 04:42:00,
2013-02-16 20:47:00,51.8,43.1,24.80,East,83,0.0,2.0,72,0.00,,---,0.01,VWS V13.01,2013-02-17 04:47:00,
2013-02-16 20:52:00,51.8,43.8,24.80,East,83,0.0,2.0,74,0.00,,---,0.01,VWS V13.01,2013-02-17 04:52:00,
2013-02-16 20:57:00,51.7,43.7,24.80,East,83,0.0,2.0,74,0.00,,---,0.01,VWS V13.01,2013-02-17 04:57:00,
2013-02-16 21:00:00,51.6,44.0,24.80,East,83,0.0,2.0,75,0.00,,---,0.01,VWS V13.01,2013-02-17 05:00:00,
2013-02-16 21:05:00,51.3,43.7,24.80,East,83,0.0,0.0,75,0.00,,---,0.01,VWS V13.01,2013-02-17 05:05:00,
2013-02-16 21:10:00,51.0,43.0,24.80,East,83,0.0,0.0,74,0.00,,---,0.01,VWS V13.01,2013-02-17 05:10:00,
2013-02-16 21:15:00,50.7,43.8,24.80,East,83,0.0,4.0,77,0.00,,---,0.01,VWS V13.01,2013-02-17 05:15:00,
2013-02-16 21:20:00,50.6,44.3,24.80,ESE,103,0.0,4.0,79,0.00,,---,0.01,VWS V13.01,2013-02-17 05:20:00,
2013-02-16 21:25:00,50.6,44.3,24.80,ESE,109,0.0,4.0,79,0.00,,---,0.01,VWS V13.01,2013-02-17 05:25:00,
2013-02-16 21:30:00,50.5,44.2,24.80,ESE,119,0.0,4.0,79,0.00,,---,0.01,VWS V13.01,2013-02-17 05:30:00,
2013-02-16 21:35:00,50.5,44.6,24.80,SE,136,0.0,4.0,80,0.00,,---,0.01,VWS V13.01,2013-02-17 05:35:00,
2013-02-16 21:40:00,50.5,44.6,24.80,SE,141,0.0,4.0,80,0.00,,---,0.01,VWS V13.01,2013-02-17 05:40:00,
2013-02-16 21:45:00,50.4,44.5,24.80,SSE,154,1.0,4.0,80,0.00,,---,0.01,VWS V13.01,2013-02-17 05:45:00,
2013-02-16 21:50:00,50.3,44.4,24.80,SSE,154,0.0,4.0,80,0.00,,---,0.01,VWS V13.01,2013-02-17 05:50:00,
2013-02-16 22:02:00,50.1,44.2,24.80,SSE,154,0.0,4.0,80,0.00,,---,0.01,VWS V13.01,2013-02-17 06:02:00,
2013-02-16 22:52:00,48.3,43.1,24.80,SSE,153,0.0,1.0,82,0.00,,---,0.01,VWS V13.01,2013-02-17 06:52:00,
2013-02-16 22:57:00,48.1,42.9,24.80,SSE,154,0.0,1.0,82,0.00,,---,0.01,VWS V13.01,2013-02-17 06:57:00,
2013-02-16 23:02:00,47.9,42.7,24.80,SSE,154,0.0,0.0,82,0.00,,---,0.01,VWS V13.01,2013-02-17 07:02:00,
2013-02-16 23:07:00,47.7,42.5,24.80,SSE,154,0.0,0.0,82,0.00,,---,0.01,VWS V13.01,2013-02-17 07:07:00,
2013-02-16 23:12:00,47.5,42.3,24.80,SSE,153,0.0,0.0,82,0.00,,---,0.01,VWS V13.01,2013-02-17 07:12:00,
2013-02-16 23:17:00,47.3,42.1,24.80,SSE,154,0.0,0.0,82,0.00,,---,0.01,VWS V13.01,2013-02-17 07:17:00,
2013-02-16 23:22:00,47.0,42.1,24.80,SSE,154,0.0,0.0,83,0.00,,---,0.01,VWS V13.01,2013-02-17 07:22:00,
2013-02-16 23:27:00,46.8,41.9,24.80,SSE,154,0.0,0.0,83,0.00,,---,0.01,VWS V13.01,2013-02-17 07:27:00,
2013-02-16 23:32:00,46.6,41.7,24.80,SSE,153,0.0,0.0,83,0.00,,---,0.01,VWS V13.01,2013-02-17 07:32:00,
2013-02-16 23:37:00,46.4,41.8,24.80,SSE,153,0.0,0.0,84,0.00,,---,0.01,VWS V13.01,2013-02-17 07:37:00,
2013-02-16 23:42:00,46.2,41.6,24.80,SSE,154,0.0,0.0,84,0.00,,---,0.01,VWS V13.01,2013-02-17 07:42:00,
2013-02-16 23:47:00,46.0,41.4,24.80,SSE,153,0.0,0.0,84,0.00,,---,0.01,VWS V13.01,2013-02-17 07:47:00,
2013-02-16 23:52:00,45.9,41.3,24.80,SSE,153,0.0,0.0,84,0.00,,---,0.01,VWS V13.01,2013-02-17 07:52:00,
2013-02-16 23:57:00,45.7,41.2,24.80,SSE,154,0.0,0.0,84,0.00,,---,0.01,VWS V13.01,2013-02-17 07:57:00,